Sulphur, LA

5:43 AM CDT on August 25, 2016 (GMT -0500)
Sulphur

Weather History for KUXL - November, 2012

Change the Weather History Date:

Friday, November 23, 2012

  Actual Average (KLCH) Record (KLCH)
Temperature  
Mean Temperature 62 °F 59 °F  
Max Temperature 73 °F 69 °F 91 °F (1915)
Min Temperature 51 °F 49 °F 28 °F (1975)
Degree Days  
Heating Degree Days 3 7  
Month to date heating degree days 112  
Since 1 July heating degree days 148  
Cooling Degree Days 0 1  
Month to date cooling degree days 47  
Year to date cooling degree days 2780  
Growing Degree Days 12 (Base 50)    
Moisture  
Dew Point 59 °F    
Average Humidity 90    
Maximum Humidity 100    
Minimum Humidity 61    
Precipitation  
Precipitation 0.02 in 0.14 in 3.37 in (2014)
Month to date precipitation 3.43  
Year to date precipitation 51.81  
Snow  
Snow 0.00 in 0.00 in 0.00 in ()
Month to date snowfall 0.0  
Since 1 July snowfall 0.0  
Since 1 September snowfall 0.0  
Snow Depth -    
Sea Level Pressure  
Sea Level Pressure 30.24 in    
Wind  
Wind Speed 4 mph (North)    
Max Wind Speed 16 mph    
Max Gust Speed 22 mph    
Visibility 8 miles    
Events Fog , Rain    
T = Trace of Precipitation, MM = Missing Value Source: NWS Daily Summary

Daily Weather History Graph

Daily Weather History Graph

Search for Another Location

Airport or City:

Trip Planner

Search our weather history database for the weather conditions in past years. The results will help you decide how hot, cold, wet, or windy it might be!

Date:

Astronomy

Nov. 23, 2012 Rise Set
Actual Time 6:45 AM CST 5:14 PM CST
Civil Twilight 6:20 AM CST 5:39 PM CST
Nautical Twilight 5:50 AM CST 6:09 PM CST
Astronomical Twilight 5:22 AM CST 6:37 PM CST
Moon 2:14 PM CST (11/23) 2:22 AM CST (11/23)
Length of Visible Light 11h 19m
Length of Day
10h 28m
Waxing Gibbous, 80% of the Moon is Illuminated
Nov 23
Waxing Gibbous
Nov 28
Full
Dec 6
Last Quarter
Dec 13
New
Dec 19
First Quarter

Hourly Weather History & Observations

Time (CST) Temp. Dew Point Humidity Pressure Visibility Wind Dir Wind Speed Gust Speed Precip Events Conditions
12:15 AM 62.6 °F 60.8 °F 94% 30.19 in 10.0 mi ESE 4.6 mph - N/A   Mostly Cloudy
12:35 AM 62.6 °F 60.8 °F 94% 30.19 in 10.0 mi Calm Calm - N/A   Overcast
12:55 AM 62.6 °F 60.8 °F 94% 30.18 in 10.0 mi ESE 3.5 mph - N/A   Mostly Cloudy
1:15 AM 60.8 °F 59.0 °F 94% 30.19 in 10.0 mi Calm Calm - N/A   Scattered Clouds
1:35 AM 60.8 °F 59.0 °F 94% 30.18 in 10.0 mi ESE 4.6 mph - N/A   Scattered Clouds
1:55 AM 59.0 °F 59.0 °F 100% 30.18 in 10.0 mi ESE 3.5 mph - N/A   Clear
2:15 AM 59.0 °F 59.0 °F 100% 30.18 in 7.0 mi ESE 3.5 mph - N/A   Clear
2:35 AM 60.8 °F 59.0 °F 94% 30.18 in 10.0 mi ESE 4.6 mph - N/A   Clear
2:55 AM 60.8 °F 60.8 °F 100% 30.18 in 10.0 mi ESE 3.5 mph - N/A   Clear
3:15 AM 60.8 °F 59.0 °F 94% 30.18 in 7.0 mi Calm Calm - N/A   Clear
3:35 AM 59.0 °F 59.0 °F 100% 30.18 in 3.0 mi Calm Calm - N/A   Clear
3:55 AM 55.4 °F 55.4 °F 100% 30.18 in 0.2 mi Calm Calm - N/A Fog Fog
4:15 AM 51.8 °F 51.8 °F 100% 30.19 in 0.2 mi NW 3.5 mph - N/A Fog Fog
4:35 AM 51.8 °F 51.8 °F 100% 30.19 in 0.2 mi Calm Calm - N/A Fog Fog
4:55 AM 51.8 °F 51.8 °F 100% 30.20 in 0.2 mi NNW 3.5 mph - N/A Fog Fog
5:15 AM 51.8 °F 51.8 °F 100% 30.20 in 0.2 mi Calm Calm - N/A Fog Fog
5:35 AM 53.6 °F 53.6 °F 100% 30.20 in 0.2 mi Calm Calm - N/A Fog Fog
5:55 AM 53.6 °F 53.6 °F 100% 30.21 in 1.8 mi Calm Calm - N/A   Overcast
6:15 AM 55.4 °F 55.4 °F 100% 30.21 in 5.0 mi Calm Calm - N/A   Overcast
6:35 AM 55.4 °F 55.4 °F 100% 30.22 in 4.0 mi Calm Calm - N/A   Overcast
6:55 AM 55.4 °F 55.4 °F 100% 30.22 in 7.0 mi Calm Calm - N/A   Overcast
7:15 AM 59.0 °F 59.0 °F 100% 30.23 in 3.0 mi Calm Calm - N/A   Overcast
7:35 AM 60.8 °F 60.8 °F 100% 30.23 in 4.0 mi Calm Calm - N/A   Overcast
7:55 AM 60.8 °F 60.8 °F 100% 30.24 in 5.0 mi Calm Calm - N/A   Overcast
8:15 AM 62.6 °F 60.8 °F 94% 30.25 in 7.0 mi Calm Calm - N/A   Overcast
8:35 AM 64.4 °F 60.8 °F 88% 30.25 in 7.0 mi Calm Calm - N/A   Overcast
8:55 AM 64.4 °F 62.6 °F 94% 30.26 in 10.0 mi Calm Calm - N/A   Overcast
9:15 AM 66.2 °F 62.6 °F 88% 30.26 in 10.0 mi Calm Calm - N/A   Overcast
9:35 AM 68.0 °F 62.6 °F 83% 30.27 in 10.0 mi Calm Calm - N/A   Overcast
9:55 AM 68.0 °F 62.6 °F 83% 30.27 in 10.0 mi SE 3.5 mph - N/A   Overcast
10:15 AM 68.0 °F 62.6 °F 83% 30.27 in 10.0 mi SE 3.5 mph - N/A   Overcast
10:35 AM 69.8 °F 62.6 °F 78% 30.27 in 10.0 mi Calm Calm - N/A   Overcast
10:55 AM 71.6 °F 62.6 °F 73% 30.27 in 10.0 mi SE 3.5 mph - N/A   Overcast
11:15 AM 71.6 °F 60.8 °F 69% 30.26 in 10.0 mi SE 3.5 mph - N/A   Overcast
11:35 AM 73.4 °F 60.8 °F 65% 30.25 in 10.0 mi Calm Calm - N/A   Overcast
12:15 PM 73.4 °F 60.8 °F 65% 30.23 in 10.0 mi Calm Calm - N/A   Overcast
12:35 PM 73.4 °F 59.0 °F 61% 30.23 in 10.0 mi Calm Calm - N/A   Overcast
12:55 PM 73.4 °F 59.0 °F 61% 30.22 in 10.0 mi Calm Calm - N/A   Mostly Cloudy
1:15 PM 73.4 °F 59.0 °F 61% 30.22 in 10.0 mi NW 8.1 mph - N/A   Mostly Cloudy
1:35 PM 69.8 °F 64.4 °F 83% 30.22 in 10.0 mi NW 9.2 mph - N/A Rain Light Rain
1:55 PM 68.0 °F 64.4 °F 88% 30.22 in 10.0 mi NNW 9.2 mph - N/A Rain Light Rain
2:15 PM 66.2 °F 64.4 °F 94% 30.23 in 7.0 mi NNW 8.1 mph - 0.01 in Rain Rain
2:35 PM 64.4 °F 64.4 °F 100% 30.22 in 7.0 mi NW 4.6 mph - 0.02 in Rain Light Rain
2:55 PM 64.4 °F 64.4 °F 100% 30.22 in 5.0 mi NW 5.8 mph - 0.02 in Rain Light Rain
3:15 PM 66.2 °F 64.4 °F 94% 30.22 in 5.0 mi NW 6.9 mph - N/A   Overcast
3:35 PM 66.2 °F 64.4 °F 94% 30.22 in 7.0 mi NW 6.9 mph - N/A   Overcast
3:55 PM 66.2 °F 64.4 °F 94% 30.22 in 7.0 mi NNW 4.6 mph - N/A   Overcast
4:15 PM 64.4 °F 64.4 °F 100% 30.22 in 10.0 mi North 5.8 mph - N/A   Overcast
4:35 PM 64.4 °F 62.6 °F 94% 30.22 in 10.0 mi North 5.8 mph - N/A Rain Light Rain
4:55 PM 64.4 °F 62.6 °F 94% 30.23 in 10.0 mi North 6.9 mph - N/A   Overcast
5:15 PM 64.4 °F 62.6 °F 94% 30.23 in 10.0 mi NNW 5.8 mph - N/A   Overcast
5:35 PM 62.6 °F 62.6 °F 100% 30.24 in 7.0 mi NNW 4.6 mph - N/A   Overcast
5:55 PM 62.6 °F 62.6 °F 100% 30.25 in 7.0 mi NNW 5.8 mph - N/A   Overcast
6:15 PM 62.6 °F 62.6 °F 100% 30.25 in 7.0 mi North 8.1 mph - N/A   Overcast
6:35 PM 62.6 °F 62.6 °F 100% 30.26 in 10.0 mi NNW 6.9 mph - N/A   Overcast
6:55 PM 62.6 °F 62.6 °F 100% 30.27 in 7.0 mi NNW 16.1 mph 20.7 mph N/A   Overcast
7:15 PM 62.6 °F 60.8 °F 94% 30.28 in 7.0 mi NNW 11.5 mph 17.3 mph N/A   Overcast
7:35 PM 62.6 °F 60.8 °F 94% 30.28 in 7.0 mi NNW 9.2 mph - N/A   Overcast
7:55 PM 62.6 °F 60.8 °F 94% 30.29 in 7.0 mi NNW 9.2 mph - N/A   Overcast
8:15 PM 60.8 °F 59.0 °F 94% 30.28 in 7.0 mi North 12.7 mph 21.9 mph N/A   Overcast
8:35 PM 60.8 °F 57.2 °F 88% 30.28 in 10.0 mi North 13.8 mph 20.7 mph N/A   Overcast
8:55 PM 60.8 °F 57.2 °F 88% 30.30 in 10.0 mi North 11.5 mph 17.3 mph N/A   Overcast
9:15 PM 60.8 °F 55.4 °F 82% 30.30 in 10.0 mi North 11.5 mph - N/A   Overcast
9:35 PM 60.8 °F 55.4 °F 82% 30.30 in 10.0 mi North 10.4 mph - N/A   Overcast
9:55 PM 60.8 °F 55.4 °F 82% 30.30 in 10.0 mi North 10.4 mph - N/A   Overcast
10:15 PM 60.8 °F 53.6 °F 77% 30.30 in 10.0 mi North 9.2 mph - N/A   Overcast
10:35 PM 59.0 °F 53.6 °F 82% 30.30 in 10.0 mi North 9.2 mph - N/A   Overcast
10:55 PM 59.0 °F 53.6 °F 82% 30.30 in 10.0 mi North 9.2 mph - N/A   Overcast
11:15 PM 59.0 °F 53.6 °F 82% 30.30 in 10.0 mi North 6.9 mph - N/A   Overcast
11:35 PM 59.0 °F 53.6 °F 82% 30.31 in 10.0 mi North 8.1 mph - N/A   Overcast
11:55 PM 59.0 °F 53.6 °F 82% 30.31 in 10.0 mi NNW 8.1 mph - N/A   Overcast